Погода в Тихвине

Россия / Санкт-Петербург и Ленинградская область     59°38′39″N   33°32′31″E
темп.,
°C
ветер,
м/с
пор.,
м/с
влажн.,
%
обл.,
%
осадки,
мм/ч
давл.,
гПа
погр.,
м
5 августа, чт
чт500:00+13зсз116992 0.0 101616
03:00+12с0065100 0.0 101710
06:00+13в1164100 0.0 101713
09:00+14в0162100 0.0 1017163
12:00+19вюв1248100 0.0 1017956
15:00+20в2239100 0.0 10161751
18:00+18всв2551100 0.0 1016230
21:00+14юз3671100 0.0 1016246
6 августа, пт
пт600:00+12зсз2389100 0.4 101788
03:00+12с2590100 0.5 1016131
06:00+11св248915 0.0 1016112
09:00+17св510585 0.0 10151199
12:00+14всв51068100 0.0 1016943
15:00+15всв5106665 0.0 10161079
18:00+15всв5869100 0.0 10151042
21:00+13всв41082100 0.0 1015720
7 августа, сб
сб700:00+13всв4118797 0.0 1014566
03:00+13всв41187100 0.0 1013498
06:00+14всв41286100 0.0 1013627
09:00+14в51290100 0.2 1012639
12:00+14в51395100 0.7 1012715
15:00+15в51194100 0.9 1011890
18:00+15в51297100 2.4 1011686
21:00+15в51297100 4.3 1010629
8 августа, вс
вс800:00+15вюв41198100 0.4 1009552
03:00+15в2798100 0.4 1009328
06:00+15всв2499100 0.1 1009180
09:00+15в1298100 0.6 1009176
12:00+16юз139899 0.4 1010258
15:00+18з248566 0.6 1010557
18:00+20зсз247632 0.6 1011703
21:00+15зсз229725 1.1 101224
9 августа, пн
пн900:00+14з239958 0.0 101360
03:00+15з1499100 0.0 1013186
06:00+15зсз1399100 0.0 1014212
09:00+16сз1292100 0.0 1015355
12:00+18св1180100 0.1 1015612
15:00+20всв2171100 0.1 1015792
18:00+20в236928 0.0 1014752
21:00+16в398897 0.0 1014256